Location: Daybis Observatory
(33.4273°N, 88.8061°W)
Time: 01:23:14
(UTC-06:00)

Daily predictions for brighter satellites

Satellite Brightness Start Highest point End
(mag) Time Altitude Azimuth Time Altitude Azimuth Time Altitude Azimuth
Nadezhda 1 Rocket 4.3 04:22:08 60° SSE 04:22:08 60° SSE 04:27:16 10° S
Lacrosse 5 3.0 04:22:23 40° E 04:22:23 40° E 04:26:12 10° ESE
Cosmos 2278 Rocket 4.1 04:26:32 10° SSE 04:31:17 29° ESE 04:36:04 10° NE
IDEFIX/ARIANE 42P 4.1 04:27:27 10° NNE 04:32:13 34° E 04:36:58 10° SSE
CZ-4C R/B 4.2 04:28:27 18° N 04:33:17 37° NE 04:40:33 10° ESE
Tiangong 2 3.9 04:48:16 17° ENE 04:48:16 17° ENE 04:49:10 10° ENE
Cosmos 1140 Rocket 4.1 04:48:36 43° N 04:48:36 43° N 04:52:00 10° NNE
Cosmos 1844 Rocket 3.5 04:50:13 36° N 04:50:13 36° N 04:53:34 10° NNE
Timation 1 Rocket 4.4 04:44:24 10° SSW 04:50:23 75° ESE 04:56:24 10° NNE
Cosmos 1400 Rocket 3.4 04:52:37 58° ESE 04:52:37 58° ESE 04:56:09 10° SSE
Milstar 3 3.4 04:54:22 30° SW 04:57:53 50° S 05:04:13 10° E
PAYLOAD A 4.1 04:55:52 10° NNE 05:00:41 66° E 05:05:22 10° S
Cosmos 2181 Rocket 4.2 04:55:30 10° N 05:01:45 69° E 05:07:52 10° SSE
Skynet4D Del rocket 4.3 05:00:51 36° SSW 05:01:49 40° S 05:07:06 10° ESE
Cosmos 1844 3.6 05:01:14 56° WSW 05:02:04 62° WNW 05:07:45 10° NNE
NOAA 6 4.0 04:57:41 10° NNE 05:02:54 85° ESE 05:08:05 10° SSW
DELTA 2 R/B (1) 4.0 05:03:48 44° NNW 05:04:57 52° NNE 05:10:25 10° E
USA 229 DEB 4.4 05:00:13 10° S 05:06:41 52° ESE 05:13:17 10° NE
USA 229 4.4 05:00:20 10° S 05:06:47 52° ESE 05:13:23 10° NE
Cosmos 1076 Rocket 3.6 05:10:26 17° N 05:13:44 72° E 05:17:59 10° SSE
SL-08 ROCKET BODY 4.2 05:11:14 10° S 05:17:03 76° W 05:22:57 10° N
MTI 3.9 05:15:15 10° SSE 05:18:28 72° ENE 05:19:01 55° NNE
Cosmos 371 Rocket 4.2 05:18:01 10° N 05:22:44 47° ENE 05:27:25 10° SE
COSMOS 2406 3.1 05:20:33 19° NNW 05:24:45 82° WSW 05:30:23 10° SSE
Meteor 1-21 Rocket 4.4 05:22:33 19° NNW 05:26:29 48° W 05:31:55 10° SSW
PSLV R/B 3.1 05:28:31 61° SSW 05:28:31 61° SSW 05:31:32 10° SE
OAO 1 Rocket 4.5 05:31:10 33° W 05:33:35 72° SSW 05:38:52 10° ESE
Cosmos 1626 3.2 05:30:37 10° N 05:34:13 46° E 05:37:48 10° SSE
Okean 3 Rocket 3.5 05:31:10 16° NNW 05:34:39 58° W 05:38:56 10° S
Cosmos 1766 Rocket 3.8 05:30:41 10° N 05:35:04 69° E 05:39:27 10° SSE
SL-14 R/B 3.2 05:33:38 25° NNW 05:35:41 57° W 05:39:26 10° S
COSMO-SKYMED 1 2.6 05:32:03 10° S 05:36:17 55° W 05:39:46 15° NNW
Radarsat Rocket 4.0 05:32:17 10° N 05:38:47 66° WNW 05:44:40 10° SSW
Okean-O 3.0 05:35:54 10° N 05:40:03 41° WNW 05:44:12 10° SW
Cosmos 1484 Rocket 4.1 05:37:52 10° NNE 05:41:25 41° E 05:44:59 10° S
MSX 3.7 05:36:32 10° N 05:42:17 81° WNW 05:48:01 10° SSW
Cosmos 1741 Rocket 4.2 05:41:03 10° SW 05:46:08 49° WNW 05:51:12 10° N
EO 1 Del DPAF 3.3 05:46:17 10° S 05:50:00 56° W 05:53:45 10° NNW
Cosmos 1833 Rocket 4.5 05:45:13 10° N 05:50:06 29° ENE 05:54:58 10° ESE
CZ-2C R/B 2.4 05:46:10 10° N 05:50:37 50° WNW 05:55:10 10° SSW
Cosmos 1842 Rocket 4.4 05:47:54 10° S 05:52:14 55° E 05:56:38 10° NNE
Cosmos 2184 Rocket 4.0 05:50:29 10° SSW 05:56:37 63° W 06:02:51 10° N
Cosmos 1315 Rocket 3.3 05:53:38 11° NNW 05:57:07 38° W 06:00:50 10° SSW
Ariane Rocket 4.3 05:52:53 10° NNE 05:57:47 45° E 06:02:38 10° S
Meteor 2-8 Rocket 4.4 05:55:24 10° NNW 06:01:27 62° W 06:07:27 10° S
NOSS 3-1 (C) 3.8 05:56:05 10° SSW 06:01:31 64° ESE 06:07:32 10° NE
SL-8 R/B 3.9 05:58:49 10° SW 06:03:35 73° SE 06:08:23 10° NE
Lacrosse 5 3.2 06:01:38 16° W 06:04:01 22° WSW 06:07:52 10° S
Shenzhou-11 Module 4.1 06:04:03 13° NNW 06:05:08 15° N 06:06:59 10° NNE
GPS 2-04 Rocket1 2.9 06:03:57 16° W 06:07:12 64° N 06:11:28 10° E
Cosmos 1610 Rocket 4.5 06:04:02 10° SSW 06:10:17 72° W 06:16:40 10° N
IDEFIX/ARIANE 42P 3.6 06:07:26 10° NNW 06:11:35 24° WNW 06:15:44 10° WSW
Cosmos 2278 Rocket 2.9 06:10:12 10° SW 06:15:12 32° WNW 06:20:15 10° N
Cosmos 332 Rocket 4.3 06:11:53 10° NW 06:16:25 38° WSW 06:20:53 10° S
Cosmos-2242 4.1 06:16:16 10° SW 06:19:42 23° WNW 06:23:07 10° NNW
Nadezhda 3 Rocket 4.2 06:15:22 10° N 06:21:44 82° E 06:28:01 10° S
CZ-4C R/B 3.3 06:14:51 10° NW 06:22:04 49° WSW 06:29:47 10° S
Gbstr 26 Del rocket 4.0 06:16:48 10° SW 06:22:38 85° NW 06:29:52 10° NE
Tiangong 2 2.6 06:20:34 11° WNW 06:23:00 23° NNW 06:25:39 10° NE
Cosmos 304 Rocket 4.2 06:18:33 10° N 06:23:19 65° ENE 06:28:03 10° SSE
CORIOLIS 4.4 06:19:21 10° NNE 06:24:46 81° ESE 06:30:10 10° S
Thor Agena Rocket 3.6 06:21:32 10° S 06:26:44 78° WSW 06:32:01 10° NNW
ATLAS CENTAUR R/B 1.5 06:23:46 10° NNW 06:27:56 83° ENE 06:32:22 10° SSE
Cosmos 1408 Rocket 4.4 06:24:31 10° NNW 06:28:21 30° W 06:32:10 10° SSW
Cosmos 2208 Rocket 4.3 06:24:46 10° NNW 06:30:03 52° WSW 06:35:18 10° S
CSL-04 Rocket 3.6 06:26:19 10° N 06:31:39 69° WNW 06:36:53 10° SSW
AQUARIUS 4.3 06:31:32 10° N 06:35:55 54° WNW 06:40:18 10° SSW
